Voltar ao catálogo

METEOR 2-5 DEB

AtivoPO
NORAD 38271·DEBRIS·🇷🇺 Russia

Lançado Oct 31, 1979 de Plesetsk Cosmodrome

Loading…

Próximas Passagens (próximas 24 horas)

TLE

AtualizadoSource: Space-Track

Época: Sep 12, 2026, 03:24 UTC

1 38271U 79095BR  26255.14208931  .00002492  00000-0  82818-3 0  9996
2 38271  81.2034  45.8884 0022533  51.9183 308.4030 14.37356532772452

Acompanhe METEOR 2-5 DEB em tempo real com AllMySat

Download on the App Store